Weather in Khomutinino

Russia / Chelyabinsk Oblast     54°32′37″N   61°26′24″E
temp.,
°C
wind,
m/s
gust,
m/s
humid.,
%
clouds,
%
prec.,
mm/h
press.,
hPa
HPBL,
m
7 may, fri
fri723:00+8nw34580 0.0 101973
02:00+7wnw36700 0.0 1020102
05:00+6nw33780 0.0 102134
08:00+10wsw22590 0.0 1022249
11:00+15sw33400 0.0 10221208
14:00+18ssw33303 0.0 10201685
17:00+19ssw23254 0.0 10191973
20:00+16s22354 0.0 101916
8 may, sat
sat823:00+12s2339100 0.0 102018
02:00+11ssw1139100 0.0 101910
05:00+10sse1142100 0.0 101910
08:00+14sse2237100 0.0 1019166
11:00+18sse222898 0.0 10181181
14:00+20e112499 0.0 10172538
17:00+20ene212353 0.0 10162763
20:00+17ne2233100 0.0 101616
9 may, sun
sun923:00+14s2341100 0.0 101681
02:00+13wsw3657100 0.0 1016130
05:00+13nw4754100 0.0 1016120
08:00+16ne574487 0.0 10161302
11:00+19nne5633100 0.0 10151962
14:00+20nne5630100 0.0 10142535
17:00+21nne562893 0.0 10142539
20:00+18n5104193 0.0 1014245
10 may, mon
mon1023:00+15nne5114892 0.0 1015240
02:00+12nne485487 0.0 1016139
05:00+11nne476824 0.0 1018116
08:00+16ene47536 0.0 1019370
11:00+21ene563626 0.0 10202037
14:00+22ene553133 0.0 10202719
17:00+23ne44275 0.0 10202776
20:00+19e223828 0.0 102024
11 may, tue
tue1123:00+16sw11413 0.0 102111
02:00+14w334916 0.0 102123
05:00+13w1155100 0.0 102110
08:00+16wsw1149100 0.0 102170
11:00+21sw3336100 0.0 1021748
14:00+20nw3542100 0.1 1021722
17:00+19nnw675393 0.1 1022671
20:00+15nne356765 1.0 1023248